M0ZPG Weather Reports


time (UTC)temp
C
wind
direction
speed
KPH
gust
KPH
rain 1hr
cm
rain 24hr
cm
rain mn
cm
humidity
%
barometer
mb
20260904012703 20 228 4.8 20.9 0.00 0.00 0.00 82 1012.5
20260904011805 20 206 4.8 16.1 0.00 0.00 0.00 82 1012.5
20260904010905 20 192 4.8 14.5 0.00 0.00 0.00 82 1012.5
20260904010003 20 237 6.4 19.3 0.00 0.00 0.00 82 1012.6
20260904005404 20 240 4.8 19.3 0.00 0.00 0.00 83 1012.8
20260904004503 20 214 4.8 20.9 0.00 0.00 0.00 83 1013.0
20260904003605 20 209 4.8 19.3 0.00 0.00 0.00 83 1013.1
20260904002703 20 206 4.8 17.7 0.00 0.00 0.00 84 1013.2
20260904001804 20 192 3.2 14.5 0.00 0.00 0.00 84 1013.4
20260904000906 20 190 3.2 8.0 0.00 0.00 0.00 84 1013.5
20260904000005 20 230 4.8 16.1 0.00 0.00 0.00 84 1013.7
20260903235403 20 247 4.8 14.5 0.00 0.00 0.00 84 1013.8
20260903234503 19 253 4.8 20.9 0.00 0.00 0.00 84 1013.8
20260903233603 20 227 3.2 14.5 0.00 0.00 0.00 84 1014.0
20260903232705 20 196 3.2 12.9 0.00 0.00 0.00 84 1014.1
20260903232017 20 242 1.6 12.9 0.00 0.00 0.00 84 1014.2
20260903230904 20 226 3.2 11.3 0.00 0.00 0.00 83 1014.2
20260903230005 20 212 3.2 12.9 0.00 0.00 0.00 83 1014.4
20260903225403 20 229 3.2 12.9 0.00 0.00 0.00 83 1014.4
20260903224505 20 226 3.2 12.9 0.00 0.00 0.00 84 1014.2
20260903223813 20 221 3.2 12.9 0.00 0.00 0.00 84 1014.3
20260903222915 20 229 3.2 14.5 0.00 0.00 0.00 84 1014.4
20260903221806 20 227 3.2 17.7 0.00 0.00 0.00 83 1014.6
20260903220905 20 225 3.2 11.3 0.00 0.00 0.00 83 1014.8
20260903220003 20 217 4.8 17.7 0.00 0.00 0.00 83 1014.9
20260903215405 20 227 4.8 17.7 0.00 0.00 0.00 83 1015.0
20260903214716 20 214 4.8 16.1 0.00 0.00 0.00 83 1015.1
20260903212916 20 240 3.2 14.5 0.00 0.00 0.00 83 1015.3
20260903212018 21 211 3.2 14.5 0.00 0.00 0.00 83 1015.1
20260903210903 21 236 3.2 11.3 0.00 0.00 0.00 83 1015.3
20260903210218 21 230 3.2 11.3 0.00 0.00 0.00 83 1015.3
20260903205403 21 217 4.8 17.7 0.00 0.00 0.00 83 1015.4
20260903204517 21 220 3.2 12.9 0.00 0.00 0.00 83 1015.4
20260903203819 21 236 3.2 16.1 0.00 0.00 0.00 83 1015.4
20260903201808 21 215 3.2 11.3 0.00 0.00 0.00 83 1015.3
20260903200903 21 210 4.8 16.1 0.00 0.00 0.00 83 1015.4
20260903200003 21 244 3.2 11.3 0.00 0.00 0.00 83 1015.3
20260903195403 21 228 3.2 11.3 0.00 0.00 0.00 82 1015.3
20260903194505 21 187 3.2 8.0 0.00 0.00 0.00 82 1015.4
20260903193604 21 165 3.2 14.5 0.00 0.00 0.00 81 1015.4
20260903192703 21 189 3.2 12.9 0.00 0.00 0.00 80 1015.5
20260903191806 21 224 3.2 16.1 0.00 0.00 0.00 79 1015.5
20260903190903 22 212 3.2 11.3 0.00 0.00 0.00 78 1015.5
20260903190005 22 200 3.2 14.5 0.00 0.00 0.00 78 1015.5
20260903185404 22 178 3.2 11.3 0.00 0.00 0.00 77 1015.4
20260903184505 22 206 4.8 14.5 0.00 0.00 0.00 77 1015.4
20260903183605 22 235 4.8 19.3 0.00 0.00 0.00 76 1015.3
20260903182704 22 211 4.8 19.3 0.00 0.00 0.00 76 1015.3
20260903181803 23 219 4.8 17.7 0.00 0.00 0.00 75 1015.3
20260903180008 23 216 4.8 12.9 0.00 0.00 0.00 74 1015.5
20260903175405 23 226 4.8 14.5 0.00 0.00 0.00 74 1015.5
20260903174504 23 198 3.2 14.5 0.00 0.00 0.00 73 1015.6
20260903173605 23 242 3.2 16.1 0.00 0.00 0.00 73 1015.6
20260903172703 24 204 6.4 24.1 0.00 0.00 0.00 72 1015.5
20260903171806 24 237 4.8 17.7 0.00 0.00 0.00 72 1015.4
20260903170904 24 166 4.8 12.9 0.00 0.00 0.00 72 1015.4
20260903170004 24 225 4.8 17.7 0.00 0.00 0.00 71 1015.6
20260903165403 24 218 4.8 19.3 0.00 0.00 0.00 71 1015.5
20260903164505 25 216 3.2 12.9 0.00 0.00 0.00 70 1015.4
20260903163603 25 225 4.8 16.1 0.00 0.00 0.00 70 1015.5
20260903162704 25 167 4.8 11.3 0.00 0.00 0.00 70 1015.4
20260903161803 25 218 4.8 22.5 0.00 0.00 0.00 69 1015.5
20260903160905 25 191 4.8 11.3 0.00 0.00 0.00 69 1015.4
20260903160003 25 233 4.8 19.3 0.00 0.00 0.00 68 1015.4
20260903155406 26 226 3.2 19.3 0.00 0.00 0.00 66 1015.6
20260903154505 25 228 4.8 12.9 0.00 0.00 0.00 67 1015.8
20260903153606 25 233 4.8 22.5 0.00 0.00 0.00 67 1015.8
20260903152705 26 245 3.2 9.7 0.00 0.00 0.00 67 1015.8
20260903151806 25 217 3.2 14.5 0.00 0.00 0.00 66 1015.9
20260903150905 25 185 3.2 12.9 0.00 0.00 0.00 69 1016.0
20260903150005 25 236 3.2 12.9 0.00 0.00 0.00 67 1016.0
20260903145403 25 231 4.8 14.5 0.00 0.00 0.00 65 1016.2
20260903144504 25 240 4.8 17.7 0.00 0.00 0.00 64 1015.9
20260903143605 26 246 4.8 17.7 0.00 0.00 0.00 63 1016.1
20260903142915 26 252 4.8 12.9 0.00 0.00 0.00 62 1016.2
20260903142017 26 242 4.8 12.9 0.00 0.00 0.00 60 1016.2
20260903140906 26 241 4.8 19.3 0.00 0.00 0.00 59 1016.2
20260903140003 26 255 3.2 19.3 0.00 0.00 0.00 59 1016.4
20260903135405 26 254 4.8 14.5 0.00 0.00 0.00 60 1016.5
20260903134503 26 253 4.8 12.9 0.00 0.00 0.00 59 1016.7
20260903133813 26 254 3.2 12.9 0.00 0.00 0.00 59 1016.6
20260903132916 26 243 3.2 20.9 0.00 0.00 0.00 61 1016.8
20260903131805 26 250 3.2 12.9 0.00 0.00 0.00 62 1016.8
20260903130906 26 251 4.8 12.9 0.00 0.00 0.00 62 1016.7
20260903130005 25 258 4.8 12.9 0.00 0.00 0.00 63 1016.6
20260903125403 25 252 4.8 17.7 0.00 0.00 0.00 66 1016.7
20260903124503 25 248 3.2 12.9 0.00 0.00 0.00 65 1016.9
20260903123819 25 255 3.2 12.9 0.00 0.00 0.00 64 1016.8
20260903122703 25 249 3.2 16.1 0.00 0.00 0.00 64 1016.9
20260903122019 25 303 1.6 8.0 0.00 0.00 0.00 63 1016.9
20260903120903 25 254 3.2 12.9 0.00 0.00 0.00 63 1016.8
20260903120004 25 259 3.2 9.7 0.00 0.00 0.00 65 1016.7
20260903115403 25 236 3.2 11.3 0.00 0.00 0.00 66 1016.8
20260903113814 24 244 3.2 11.3 0.00 0.00 0.00 68 1016.9
20260903112705 23 250 3.2 11.3 0.00 0.00 0.00 69 1016.9
20260903111805 23 230 3.2 14.5 0.00 0.00 0.00 70 1017.0
20260903110905 23 221 3.2 12.9 0.00 0.00 0.00 70 1017.0
20260903110005 23 256 1.6 8.0 0.00 0.00 0.00 73 1017.0
20260903105403 23 255 3.2 8.0 0.00 0.00 0.00 72 1017.2
20260903104505 23 260 3.2 11.3 0.00 0.00 0.00 72 1017.2
20260903103603 23 253 3.2 11.3 0.00 0.00 0.00 71 1017.2
20260903102703 23 253 1.6 6.4 0.00 0.00 0.00 72 1017.2
20260903102015 22 251 1.6 12.9 0.00 0.00 0.00 73 1017.3
20260903100903 22 245 3.2 11.3 0.00 0.00 0.00 74 1017.1
20260903100017 21 256 1.6 6.4 0.00 0.00 0.00 77 1017.1
20260903095403 21 255 1.6 11.3 0.00 0.00 0.00 77 1017.3
20260903094505 21 255 1.6 11.3 0.00 0.00 0.00 77 1017.4
20260903093605 21 275 1.6 8.0 0.00 0.00 0.00 78 1017.4
20260903092705 21 250 1.6 8.0 0.00 0.00 0.00 78 1017.3
20260903091803 21 268 1.6 9.7 0.00 0.00 0.00 78 1017.4
20260903091113 21 250 1.6 8.0 0.00 0.00 0.00 78 1017.4
20260903090006 21 277 3.2 12.9 0.00 0.00 0.00 79 1017.1
20260903085403 21 262 3.2 11.3 0.00 0.00 0.00 80 1017.1
20260903084506 21 243 3.2 11.3 0.00 0.00 0.00 80 1017.0
20260903083605 20 248 1.6 11.3 0.00 0.00 0.00 81 1016.9
20260903082703 20 229 4.8 14.5 0.00 0.00 0.00 81 1016.6
20260903081805 20 253 3.2 19.3 0.00 0.00 0.00 82 1016.4
20260903080903 20 242 3.2 12.9 0.00 0.00 0.00 83 1016.2
20260903080005 20 235 4.8 14.5 0.00 0.00 0.00 83 1016.1
20260903075405 20 250 3.2 12.9 0.00 0.00 0.00 83 1016.1
20260903074505 20 243 3.2 12.9 0.00 0.00 0.00 84 1016.0
20260903073603 20 228 3.2 12.9 0.00 0.00 0.00 85 1016.0
20260903072705 19 238 3.2 17.7 0.00 0.00 0.00 85 1015.7
20260903071803 19 221 3.2 11.3 0.00 0.00 0.00 85 1015.4
20260903070905 19 196 1.6 11.3 0.00 0.00 0.00 86 1015.9
20260903070003 19 190 1.6 6.4 0.00 0.00 0.00 86 1016.1
20260903065405 19 227 1.6 6.4 0.00 0.00 0.00 86 1016.1
20260903064505 19 229 1.6 11.3 0.00 0.00 0.00 86 1016.0
20260903063603 19 227 1.6 6.4 0.00 0.00 0.00 86 1016.2
20260903062703 18 242 1.6 11.3 0.00 0.00 0.00 87 1016.1
20260903062018 18 234 1.6 11.3 0.00 0.00 0.00 87 1016.0
20260903060903 18 220 1.6 9.7 0.00 0.00 0.00 87 1015.9
20260903060003 18 248 1.6 9.7 0.00 0.00 0.00 87 1015.9
20260903055405 18 250 1.6 9.7 0.00 0.00 0.00 87 1015.8
20260903054506 18 237 3.2 11.3 0.00 0.00 0.00 88 1015.8
20260903053605 18 211 3.2 9.7 0.00 0.00 0.00 88 1015.7
20260903052703 18 203 3.2 8.0 0.00 0.00 0.00 88 1015.6
20260903051803 18 190 1.6 9.7 0.00 0.00 0.00 88 1015.6
20260903050903 18 214 1.6 8.0 0.00 0.00 0.00 88 1015.6
20260903050006 18 221 3.2 14.5 0.00 0.00 0.00 88 1015.6
20260903045405 18 222 1.6 8.0 0.00 0.00 0.00 88 1015.6
20260903044506 18 228 1.6 8.0 0.00 0.00 0.00 88 1015.4
20260903043605 18 209 1.6 11.3 0.00 0.00 0.00 88 1015.4
20260903042916 18 229 3.2 11.3 0.00 0.00 0.00 88 1015.5
20260903041805 18 170 1.6 8.0 0.00 0.00 0.00 88 1015.5
20260903040903 18 241 1.6 9.7 0.00 0.00 0.00 88 1015.4
20260903040003 18 243 3.2 14.5 0.00 0.00 0.00 88 1015.8
20260903035406 18 232 3.2 12.9 0.00 0.00 0.00 88 1015.9
20260903034503 18 233 1.6 11.3 0.00 0.00 0.00 88 1015.7
20260903033605 18 175 1.6 8.0 0.00 0.00 0.00 87 1015.5
20260903032703 18 212 1.6 14.5 0.00 0.00 0.00 87 1015.4
20260903032014 18 240 3.2 14.5 0.00 0.00 0.00 87 1015.5
20260903030905 18 199 3.2 12.9 0.00 0.00 0.00 87 1015.6
20260903030005 18 235 3.2 11.3 0.00 0.00 0.00 87 1015.5
20260903025403 18 242 3.2 14.5 0.00 0.00 0.00 87 1015.4
20260903024503 18 200 3.2 9.7 0.00 0.00 0.00 87 1015.6
20260903023815 18 205 3.2 8.0 0.00 0.00 0.00 87 1015.7
20260903022705 18 174 1.6 12.9 0.00 0.00 0.00 87 1015.5
20260903021805 18 207 3.2 11.3 0.00 0.00 0.00 87 1015.6
20260903020905 18 217 1.6 11.3 0.00 0.00 0.00 87 1015.5
20260903020215 18 157 1.6 11.3 0.00 0.00 0.00 87 1015.7
20260903015626 18 178 3.2 12.9 0.00 0.00 0.00 87 1015.6
20260903014503 18 222 1.6 8.0 0.00 0.00 0.00 87 1015.7